Date String (YYYY-MM-DD hh:mm:ss) UTC,Instrument flags,Ambient pressure (hPa),Sample flow (lpm),Bypass flow (lpm),Sample temperature (°C),Ambient temperature (°C),ASC tube jacket temperature (°C),LED temperature (°C),Box temperature (°C),Sample RH (%),Span deviation,Mass concentration (μg/m³),Mass concentration (μg/m³),Mass concentration (μg/m³)
DateTimeUTC,F1_M11,P_M11,Q1_M11,Q2_M11,T1_M11,T2_M11,T3_M11,T4_M11,T5_M11,U1_M11,ZSPAN_M11,X2_M11,X0_M11,X1_M11
2021-12-21 08:00:00,,0822.7,5.01,0.00,22.4,21.6,00.0,31.4,24.1,08.5,0000.0,0003.95,0013.05,0002.86
2021-12-21 08:01:00,,0822.7,4.99,0.00,22.4,21.7,00.0,31.4,24.1,08.5,0000.0,0003.84,0013.07,0002.71
2021-12-21 08:02:00,,0822.7,5.00,0.00,22.4,21.7,00.0,31.4,24.2,08.5,0000.0,0003.76,0012.18,0002.58
2021-12-21 08:03:00,,0822.6,5.00,0.00,22.4,21.7,00.0,31.4,24.1,08.6,0000.0,0003.78,0013.04,0002.57
2021-12-21 08:04:00,,0822.6,5.00,0.00,22.4,21.7,00.0,31.4,24.1,08.5,0000.0,0003.74,0012.96,0002.56
2021-12-21 08:05:00,,0822.6,5.00,0.00,22.4,21.7,00.0,31.4,24.1,08.5,0000.0,0003.77,0012.51,0002.55
2021-12-21 08:06:00,,0822.7,4.99,0.00,22.4,21.7,00.0,31.4,24.2,08.5,0000.0,0003.80,0012.16,0002.55
2021-12-21 08:07:00,,0822.7,5.01,0.00,22.4,21.7,00.0,31.4,24.1,08.7,0000.0,0003.89,0012.05,0002.59
2021-12-21 08:08:00,,0822.7,4.99,0.00,22.4,21.7,00.0,31.4,24.1,08.6,0000.0,0003.93,0012.13,0002.60
2021-12-21 08:09:00,,0822.6,5.00,0.00,22.4,21.7,00.0,31.4,24.2,08.4,0000.0,0003.90,0011.84,0002.59
2021-12-21 08:10:00,,0822.6,5.01,0.00,22.4,21.7,00.0,31.4,24.2,08.2,0000.0,0003.83,0011.53,0002.54
2021-12-21 08:11:00,,0822.6,4.98,0.00,22.4,21.7,00.0,31.4,24.1,08.2,0000.0,0003.83,0011.79,0002.51
2021-12-21 08:12:00,,0822.6,5.01,0.00,22.4,21.7,00.0,31.4,24.2,08.2,0000.0,0003.84,0011.60,0002.49
2021-12-21 08:13:00,,0822.6,5.00,0.00,22.4,21.7,00.0,31.4,24.2,08.6,0000.0,0003.84,0011.33,0002.51
2021-12-21 08:14:00,,0822.6,5.00,0.00,22.4,21.7,00.0,31.4,24.2,09.0,0000.0,0003.92,0010.37,0002.62
2021-12-21 08:15:00,,0822.6,5.01,0.00,22.4,21.7,00.0,31.4,24.1,09.0,0000.0,0004.03,0011.03,0002.70
2021-12-21 08:16:00,,0822.5,5.00,0.00,22.4,21.6,00.0,31.4,24.1,09.0,0000.0,0004.08,0011.98,0002.77
2021-12-21 08:17:00,,0822.4,5.01,0.00,22.4,21.6,00.0,31.4,24.1,09.0,0000.0,0004.19,0012.46,0002.88
2021-12-21 08:18:00,,0822.4,4.99,0.00,22.3,21.6,00.0,31.4,24.0,08.7,0000.0,0004.14,0012.75,0002.90
2021-12-21 08:19:00,,0822.5,5.00,0.00,22.3,21.6,00.0,31.4,24.0,08.6,0000.0,0004.11,0012.77,0002.89
2021-12-21 08:20:00,,0822.4,4.99,0.00,22.3,21.5,00.0,31.4,24.0,08.8,0000.0,0004.20,0012.64,0002.96
2021-12-21 08:21:00,,0822.4,5.01,0.00,22.3,21.5,00.0,31.4,24.0,08.8,0000.0,0004.27,0012.65,0003.04
2021-12-21 08:22:00,,0822.4,5.00,0.00,22.3,21.8,00.0,31.4,24.0,08.8,0000.0,0004.34,0013.95,0003.12
2021-12-21 08:23:00,,0822.4,5.01,0.00,22.4,22.6,00.0,31.4,24.3,08.7,0000.0,0004.37,0014.33,0003.15
2021-12-21 08:24:00,,0822.6,5.00,0.00,22.6,23.1,00.0,31.5,24.6,08.6,0000.0,0004.39,0014.40,0003.16
2021-12-21 08:25:00,,0822.6,5.00,0.00,22.6,22.9,00.0,31.5,24.6,08.7,0000.0,0004.34,0014.53,0003.13
2021-12-21 08:26:00,,0822.6,4.99,0.00,22.6,22.7,00.0,31.5,24.5,08.7,0000.0,0004.31,0014.14,0003.11
2021-12-21 08:27:00,,0822.5,5.00,0.00,22.6,22.6,00.0,31.5,24.5,08.7,0000.0,0004.29,0013.37,0003.11
2021-12-21 08:28:00,,0822.5,5.01,0.00,22.6,22.4,00.0,31.5,24.4,08.7,0000.0,0004.26,0012.82,0003.09
2021-12-21 08:29:00,,0822.6,4.99,0.00,22.6,22.4,00.0,31.5,24.5,08.7,0000.0,0004.27,0012.43,0003.09
2021-12-21 08:30:00,,0822.5,5.01,0.00,22.7,22.3,00.0,31.5,24.5,08.7,0000.0,0004.37,0012.65,0003.14
2021-12-21 08:31:00,,0822.5,4.99,0.00,22.6,22.2,00.0,31.5,24.4,08.9,0000.0,0004.36,0012.90,0003.15
2021-12-21 08:32:00,,0822.7,5.00,0.00,22.6,22.1,00.0,31.5,24.3,09.0,0000.0,0004.43,0012.96,0003.20
2021-12-21 08:33:00,,0822.6,5.00,0.00,22.6,22.0,00.0,31.5,24.3,09.0,0000.0,0004.49,0011.87,0003.24
2021-12-21 08:34:00,,0822.1,4.99,0.00,22.6,22.0,00.0,31.5,24.3,08.9,0000.0,0004.58,0011.79,0003.28
2021-12-21 08:35:00,,0822.3,5.01,0.00,22.6,22.0,00.0,31.5,24.3,08.3,0000.0,0004.60,0013.19,0003.31
2021-12-21 08:36:00,,0822.4,5.01,0.00,22.6,21.9,00.0,31.5,24.3,09.0,0000.0,0004.62,0013.19,0003.34
2021-12-21 08:37:00,,0822.6,4.99,0.00,22.5,21.9,00.0,31.5,24.2,09.0,0000.0,0004.65,0012.77,0003.39
2021-12-21 08:38:00,,0822.3,5.01,0.00,22.5,21.8,00.0,31.5,24.2,09.0,0000.0,0004.69,0013.12,0003.41
2021-12-21 08:39:00,,0822.2,5.00,0.00,22.5,21.8,00.0,31.5,24.1,08.3,0000.0,0004.68,0013.82,0003.40
2021-12-21 08:40:00,,0822.2,5.00,0.00,22.5,21.8,00.0,31.5,24.2,07.5,0000.0,0004.54,0014.13,0003.32
2021-12-21 08:41:00,,0822.2,5.02,0.00,22.5,21.7,00.0,31.5,24.2,07.4,0000.0,0004.33,0013.80,0003.24
2021-12-21 08:42:00,,0822.3,4.99,0.00,22.5,21.7,00.0,31.5,24.2,07.5,0000.0,0004.16,0013.17,0003.13
2021-12-21 08:43:00,,0822.3,5.01,0.00,22.4,21.7,00.0,31.5,24.1,06.9,0000.0,0003.90,0012.97,0002.92
2021-12-21 08:44:00,,0822.4,5.00,0.00,22.4,21.7,00.0,31.5,24.1,06.4,0000.0,0003.65,0012.57,0002.59
2021-12-21 08:45:00,,0822.4,4.98,0.00,22.4,21.7,00.0,31.5,24.1,06.5,0000.0,0003.39,0011.86,0002.32
2021-12-21 08:46:00,,0822.6,5.01,0.00,22.4,21.7,00.0,31.5,24.1,07.5,0000.0,0003.27,0010.36,0002.17
2021-12-21 08:47:00,,0822.5,5.01,0.00,22.4,21.6,00.0,31.5,24.1,09.1,0000.0,0003.46,0012.14,0002.27
2021-12-21 08:48:00,,0822.4,4.99,0.00,22.4,21.6,00.0,31.5,24.1,09.1,0000.0,0003.56,0013.16,0002.36
2021-12-21 08:49:00,,0822.4,5.01,0.00,22.4,21.6,00.0,31.5,24.1,08.4,0000.0,0003.58,0013.23,0002.40
2021-12-21 08:50:00,,0822.4,5.00,0.00,22.4,21.6,00.0,31.4,24.1,08.2,0000.0,0003.60,0014.10,0002.42
2021-12-21 08:51:00,,0822.4,4.99,0.00,22.4,21.6,00.0,31.4,24.1,07.1,0000.0,0003.64,0013.76,0002.45
2021-12-21 08:52:00,,0822.4,4.99,0.00,22.4,21.6,00.0,31.4,24.1,07.7,0000.0,0003.67,0013.53,0002.49
2021-12-21 08:53:00,,0822.4,5.01,0.00,22.4,21.6,00.0,31.4,24.0,08.0,0000.0,0003.77,0014.45,0002.61
2021-12-21 08:54:00,,0822.0,5.00,0.00,22.3,21.6,00.0,31.4,24.0,07.7,0000.0,0003.93,0015.79,0002.74
2021-12-21 08:55:00,,0822.2,4.99,0.00,22.3,21.5,00.0,31.4,24.0,06.6,0000.0,0003.95,0015.77,0002.80
2021-12-21 08:56:00,,0822.3,5.00,0.00,22.3,21.5,00.0,31.4,23.9,06.6,0000.0,0003.97,0015.50,0002.83
2021-12-21 08:57:00,,0822.1,5.02,0.00,22.3,21.5,00.0,31.4,23.9,06.2,0000.0,0003.92,0015.32,0002.76
2021-12-21 08:58:00,,0822.4,4.99,0.00,22.3,21.5,00.0,31.3,23.9,06.2,0000.0,0003.51,0013.00,0002.36
2021-12-21 08:59:00,,0822.4,5.01,0.00,22.3,21.5,00.0,31.3,23.9,06.8,0000.0,0003.19,0011.59,0002.01
